Orbital Elements at Epoch 2459200.5 (2020-Dec-17.0) TDB
Reference: JPL 12 (heliocentric ecliptic J2000)
Element | Value | Uncertainty (1-sigma) | Units |
e | .1112935956637347 | 4.9182e-08 | |
a | 2.641875721357178 | 1.8506e-08 | au |
q | 2.347851873030615 | 1.2737e-07 | au |
i | 4.484514184013673 | 6.1859e-06 | deg |
node | 48.38118377174421 | 5.8677e-05 | deg |
peri | 204.6535758517298 | 6.4584e-05 | deg |
M | 279.0513320723422 | 2.6056e-05 | deg |
tp | 2459553.174620945942 (2021-Dec-04.67462095) | 0.00011308 | TDB |
period | 1568.436724048423 4.29 | 1.648e-05 4.512e-08 | d yr |
n | .2295279079354722 | 2.4117e-09 | deg/d |
Q | 2.935899569683741 | 2.0566e-08 | au |
|
| | Orbit Determination Parameters
Additional Information
|